Weather in Troyekurovo

Russia / Lipetsk Oblast     52°58′30″N   38°58′32″E
temp.,
°C
wind,
m/s
gust,
m/s
humid.,
%
clouds,
%
prec.,
mm/h
press.,
hPa
HPBL,
m
11 april, sun
sun1100:00+4nnw22571 0.0 102710
03:00+3nnw23600 0.0 102818
06:00+2n336541 0.0 102927
09:00+7nne2451100 0.0 1030285
12:00+11nne4539100 0.0 1030933
15:00+12ne5636100 0.0 10291114
18:00+11ne584576 0.0 1029390
21:00+7ne41064100 0.0 1030189
12 april, mon
mon1200:00+6ne51266100 0.0 1030278
03:00+6ne51167100 0.0 1030331
06:00+4ne51182100 0.0 1029310
09:00+8ene698297 0.0 1029385
12:00+12ene5771100 0.0 1028498
15:00+17e6858100 0.0 1026789
18:00+16ene476211 0.0 1025184
21:00+13ese4137017 0.0 1025202
13 april, tue
tue1300:00+11ese4107420 0.0 1025156
03:00+9se497698 0.0 1026126
06:00+8se487491 0.0 1026144
09:00+13se595497 0.0 1025352
12:00+18se58428 0.0 1025950
15:00+20sse68386 0.0 10231798
18:00+18se4845100 0.0 1023180
21:00+13ese411545 0.0 1023180
14 april, wed
wed1400:00+12se5146039 0.0 1023281
03:00+10se4107099 0.0 1023147
06:00+9se3771100 0.0 1022106
09:00+14se585268 0.0 1022324
12:00+18se683680 0.0 10211105
15:00+19se682996 0.0 10192038
18:00+17se474066 0.0 1018184
21:00+13se345178 0.0 101939
15 april, thu
thu1500:00+11se3353100 0.0 101826
03:00+10ese3361100 0.0 101821
06:00+9ese3369100 0.0 101740
09:00+13e4659100 0.0 1016254
12:00+18e5641100 0.0 1014973
15:00+19e6834100 0.0 10122477
18:00+14e3660100 0.3 1012187
21:00+11ese2281100 1.1 101232